FENGYUN 2G

Last updated on Fri Jul 11 2025 00:02:20 GMT+0000 (Coordinated Universal Time)

1 40367U 14090A 25191.64659759 -.00000291 00000+0 00000+0 0 9994 2 40367 4.7716 76.9956 0003943 139.3059 44.6781 1.00263549 38571
UTC large
Height (km)
Speed (km/s)
/
Latitude / Longitude
Inclination (degrees)
Orbital Period (minutes)
Azimuth
Elevation
Range (km)
Doppler Factor

Next 0 passes for location: London (51.5072 / 0.1276)

Sorry there are no passes over London.